Hourly Data Report for October 09, 2017

All times are specified in Local Standard Time (LST). Add 1 hour to adjust for Daylight Saving Time where and when it is observed.

GRAND MANAN SAR CS
NEW BRUNSWICK

44°42'43.400" N
66°48'06.900" W
78.20 m
8101925
71030
XGM

Download Data

Hourly Data (October 2017)
Hourly Data Report for October 9, 2017
Temp Definition
°C
Dew Point Temp Definition
°C
Rel Hum Definition
%
Wind Dir Definition
10's deg

Wind Spd Definition
km/h
Visibility Definition
km
Stn Press Definition
kPa
Hmdx Definition


Wind Chill Definition


Weather Definition


TIME
00:00 14.6 14.4 99 26 6   100.53     LegendNANA
01:00 14.1 14.0 99 28 3   100.59     LegendNANA
02:00 14.4 14.3 99 29 5   100.62     LegendNANA
03:00 12.9 12.8 100   0   100.66     LegendNANA
04:00 13.4 13.4 100 32 6   100.70     LegendNANA
05:00 12.0 11.9 100 32 1   100.75     LegendNANA
06:00 10.8 10.8 100 29 3   100.80     LegendNANA
07:00 11.7 11.6 100 30 2   100.83     LegendNANA
08:00 13.9 13.8 100 21 1   100.89     LegendNANA
09:00 16.4 16.3 99 18 6   100.89     LegendNANA
10:00 16.6 16.1 97 16 5   100.89     LegendNANA
11:00 16.3 15.1 93 18 9   100.86     LegendNANA
12:00 17.0 15.0 88 18 11   100.82     LegendNANA
13:00 15.9 14.7 92 19 11   100.81     LegendNANA
14:00 15.2 14.7 96 20 10   100.78     LegendNANA
15:00 15.3 15.0 98 22 9   100.79     LegendNANA
16:00 15.6 15.3 98 18 2   100.72     LegendNANA
17:00 15.3 15.0 98 20 5   100.69     LegendNANA
18:00 14.2 14.0 99 16 12   100.63     LegendNANA
19:00 14.3 14.1 99 20 7   100.62     LegendNANA
20:00 14.6 14.5 99 19 15   100.55     LegendNANA
21:00 15.0 14.9 99 18 13   100.50     LegendNANA
22:00 16.6 16.5 99 20 13   100.43     LegendNANA
23:00 16.9 16.7 99 19 21   100.29     LegendNANA

Notes on Data Quality.

Legend

  • E = Estimated
  • M = Missing
  • NA = Not Available
  • ‡ = Partner data that is not subject to review by the National Climate Archives
Date modified: